Overview Statistics Trail Chart Weather Telemetry Raw packets
 

This is the latest recevied weather packets stored in our database for station/object DOUGLAS. If no packets are shown the sender has not sent any weather packets the latest 10 day(s).

<< 3 4 5 6 7 8 9 >>
Time Temp. Humidity Pressure Rain* Wind** Luminosity Snow
1788579003 10.56° C 99% 0 hPa - - - -
1788578402 11.11° C 99% 0 hPa - - - -
1788577802 11.11° C 99% 0 hPa - - - -
1788577203 11.11° C 99% 0 hPa - - - -
1788576603 11.67° C 99% 0 hPa - - - -
1788576003 11.67° C 99% 0 hPa - - - -
1788575403 12.22° C 99% 0 hPa - - - -
1788574803 12.22° C 99% 0 hPa - - - -
1788574202 12.78° C 99% 0 hPa - - - -
1788573603 12.78° C 99% 0 hPa - - - -
1788572403 13.33° C 94% 0 hPa - - - -
1788571803 13.33° C 97% 0 hPa - - - -
1788571203 13.33° C 96% 0 hPa - - - -
1788570634 13.33° C 96% 0 hPa - - - -
1788570003 13.33° C 99% 0 hPa - - - -
1788569403 14.44° C 92% 0 hPa - - - -
1788568203 14.44° C 92% 0 hPa - - - -
1788567603 15° C 91% 0 hPa - - - -
1788567003 15° C 93% 0 hPa - - - -
1788566403 15.56° C 92% 0 hPa - - - -
1788565803 16.11° C 76% 0 hPa - - - -
1788565203 15.56° C 84% 0 hPa - - - -
1788564603 15° C 84% 0 hPa - - - -
1788564003 15.56° C 83% 0 hPa - - - -
1788563403 15.56° C 81% 0 hPa - - - -

* Rain since midnight (hover to see other rain measurements)
** Current wind speed in m/s (hover to see current wind gust speed)